Lacanau-Ocean, France

2:12 AM CEST on September 22, 2017 (GMT +0200)
Lacanau-Ocean

Weather History for 07500 - December, 2013

Change the Weather History Date:

Wednesday, December 25, 2013

  Actual Average Record
Temperature  
Mean Temperature 51 °F -  
Max Temperature 55 °F 49 °F - ()
Min Temperature 47 °F 36 °F - ()
Degree Days  
Heating Degree Days 14    
Growing Degree Days 1 (Base 50)    
Moisture  
Dew Point 45 °F    
Average Humidity 75    
Maximum Humidity 94    
Minimum Humidity 56    
Precipitation  
Precipitation 0.20 in - - ()
Sea Level Pressure  
Sea Level Pressure 29.33 in    
Wind  
Wind Speed 18 mph ()    
Max Wind Speed 41 mph    
Max Gust Speed -    
Visibility 5.5 miles    
Events Rain , Thunderstorm    
T = Trace of Precipitation, MM = Missing Value Source: Averaged Metar Reports

Daily Weather History Graph

Daily Weather History Graph

Search for Another Location

Airport or City:

Trip Planner

Search our weather history database for the weather conditions in past years. The results will help you decide how hot, cold, wet, or windy it might be!

Date:

Astronomy

Dec. 25, 2013 Rise Set
Actual Time 8:40 AM CET 5:29 PM CET
Civil Twilight 8:06 AM CET 6:03 PM CET
Nautical Twilight 7:29 AM CET 6:40 PM CET
Astronomical Twilight 6:54 AM CET 7:15 PM CET
Moon 12:39 AM CET (12/25) 12:39 PM CET (12/25)
Length of Visible Light 9h 56m
Length of Day
8h 49m
Waning Gibbous, 51% of the Moon is Illuminated
Dec 25
Waning Gibbous
Dec 25
Last Quarter
Jan 1
New
Jan 8
First Quarter
Jan 16
Full

Hourly Weather History & Observations

Time (CET) Temp. Dew Point Humidity Pressure Visibility Wind Dir Wind Speed Gust Speed Precip Events Conditions
12:00 AM 53 °F 51 °F 90% 29.36 in - SSW 20.7 mph - -  
1:00 AM 52 °F 51 °F 94% 29.37 in 3 mi SW 26.5 mph - - Rain Light Rain
2:00 AM 51 °F 49 °F 90% 29.37 in - WSW 17.3 mph - -  
3:00 AM 50 °F 48 °F 89% 29.37 in - SW 15.0 mph - -  
4:00 AM 51 °F 47 °F 80% 29.37 in 9 mi SW 21.9 mph - - Rain Light Rain
5:00 AM 51 °F 45 °F 74% 29.37 in - WSW 19.6 mph - -  
6:00 AM 52 °F 47 °F 76% 29.35 in - WSW 13.8 mph - -  
7:00 AM 51 °F 48 °F 84% 29.35 in 5 mi SSW 17.3 mph - -   Partly Cloudy
8:00 AM 51 °F 47 °F 82% 29.34 in - SW 17.3 mph - -  
10:00 AM 53 °F 47 °F 75% 29.32 in 4 mi South 16.1 mph - - Thunderstorm Thunderstorm
11:00 AM 51 °F 43 °F 65% 29.34 in - West 19.6 mph - -  
12:00 PM 48 °F 45 °F 87% 29.32 in - SW 5.8 mph - -  
1:00 PM 52 °F 47 °F 76% 29.29 in 5 mi South 3.5 mph - -   Partly Cloudy
2:00 PM 56 °F 48 °F 66% 29.29 in - SSW 9.2 mph - -  
3:00 PM 54 °F 43 °F 58% 29.27 in - SW 21.9 mph - -  
4:00 PM 54 °F 44 °F 61% 29.27 in 5 mi SW 20.7 mph - -   Partly Cloudy
5:00 PM 52 °F 44 °F 65% 29.29 in - WSW 28.8 mph - -  
6:00 PM 49 °F 42 °F 70% 29.30 in - WSW 39.1 mph - -  
7:00 PM 51 °F 40 °F 56% 29.31 in 4 mi West 41.4 mph - -   Partly Cloudy
8:00 PM 50 °F 41 °F 63% 29.32 in - WSW 36.8 mph - -  
9:00 PM 49 °F 42 °F 69% 29.35 in - West 33.4 mph - -  
10:00 PM 47 °F 42 °F 76% 29.38 in 9 mi West 29.9 mph - - Rain Light Rain Showers
11:00 PM 49 °F 42 °F 71% 29.38 in - West 28.8 mph - -